Location: High Cliff State Park
(44.1557°N, 88.2948°W)
Time: 06:49:05
(UTC-05:00)

Amateur Radio Satellites - All Passes

Search period start: 01 August 2015 06:19
Search period end: 02 August 2015 06:19
Location: High Cliff State Park, 44.1557°N, 88.2948°W

Satellite Date Start Highest point End Downlink Frequencies (MHz)
Time Altitude Azimuth
HORYU 2 01 Aug 06:21:20 06:24:09 16° 298° (WNW) 06:26:48 437.375
CUBESAT XI-V 01 Aug 06:30:43 06:35:21 63° 259° (W) 06:40:01 437.345
Cubesat XI-IV 01 Aug 06:40:42 06:45:32 35° 96° (E) 06:50:24 437.490
JAS-2 01 Aug 06:46:34 06:50:28 14° 309° (NW) 06:54:00 435.910
AO-7 01 Aug 06:56:44 07:03:42 30° 305° (NW) 07:10:28 29.400- 29.500
STRAND 1 01 Aug 06:58:30 07:03:39 81° 75° (ENE) 07:08:49 437.568
Cosmos 2499 01 Aug 06:59:59 07:06:02 29° 83° (E) 07:12:39 435.465 / 435.565
BEESAT 2 01 Aug 07:03:49 07:06:02 14° 35° (NE) 07:08:18 435.950
GONETS M04 01 Aug 07:10:46 07:19:25 64° 283° (WNW) 07:28:03
CUTE-I 01 Aug 07:36:22 07:41:43 78° 287° (WNW) 07:47:01 437.470
PRISM 01 Aug 07:37:41 07:41:43 44° 261° (W) 07:45:45 437.425
BRITE-PL 01 Aug 07:38:48 07:41:34 17° 91° (E) 07:44:35 437.365/2234.400
BEESAT 3 01 Aug 07:42:53 07:46:33 32° 46° (NE) 07:50:11 437.485
RS-15 01 Aug 07:45:10 07:56:35 57° 246° (WSW) 08:08:15 29.354- 29.394
GOMX 1 01 Aug 07:50:15 07:52:26 14° 89° (E) 07:54:53 467.674
PCSat 01 Aug 07:57:33 07:58:39 11° 103° (ESE) 08:00:05 145.827
CANX-2 01 Aug 08:19:03 08:21:00 13° 88° (E) 08:23:10 2200.000
Cubesat XI-IV 01 Aug 08:20:52 08:25:37 33° 294° (WNW) 08:30:18 437.490
M-CUBED/EXP-1 PRIME 01 Aug 08:31:36 08:35:08 29° 61° (ENE) 08:38:59 437.505
AIST 2 01 Aug 08:36:02 08:39:26 23° 42° (NE) 08:42:51 435.215
HO-68 01 Aug 08:37:20 08:43:19 29° 93° (E) 08:49:27 435.675
BEESAT 2 01 Aug 08:40:37 08:44:44 87° 55° (NE) 08:48:45 435.950
STRAND 1 01 Aug 08:41:06 08:43:35 13° 273° (W) 08:45:47 437.568
Cosmos 2499 01 Aug 08:51:21 08:58:41 58° 285° (WNW) 09:06:36 435.465 / 435.565
AUBIESAT-1 01 Aug 09:00:26 09:04:23 48° 66° (ENE) 09:08:40 437.475
GONETS M04 01 Aug 09:14:06 09:18:32 14° 308° (NW) 09:22:27
DOVE 4 01 Aug 09:14:41 09:19:14 60° 101° (E) 09:24:03 437.250
BRITE-PL 01 Aug 09:16:11 09:20:24 50° 287° (WNW) 09:24:53 437.365/2234.400
CUTE-I 01 Aug 09:18:51 09:21:00 12° 303° (WNW) 09:22:54 437.470
BEESAT 3 01 Aug 09:20:55 09:24:25 28° 244° (WSW) 09:27:49 437.485
CINEMA 3 01 Aug 09:23:52 09:28:09 35° 96° (E) 09:32:37 145.822/145.860
GOMX 1 01 Aug 09:26:33 09:31:01 66° 285° (WNW) 09:35:46 467.674
COMPASS 1 01 Aug 09:26:42 09:30:41 39° 97° (E) 09:34:39 437.405
UNISAT 6 01 Aug 09:31:10 09:34:17 20° 65° (ENE) 09:37:34 437.425
PCSat 01 Aug 09:35:53 09:41:16 78° 120° (ESE) 09:46:44 145.827
FUNcube-1 01 Aug 09:37:47 09:39:59 14° 88° (E) 09:42:25 145.935
UWE-3 01 Aug 09:39:19 09:42:35 19° 91° (E) 09:46:00 435.000/436.395/437.385
SO-50 01 Aug 09:40:18 09:45:00 64° 121° (ESE) 09:49:53 436.795
SEEDS 01 Aug 09:41:40 09:45:59 75° 103° (ESE) 09:50:13 437.485
CUTE 1.7 + AOD 2 01 Aug 09:44:40 09:49:00 83° 284° (WNW) 09:53:17 437.475
POPSAT HIP 1 01 Aug 09:45:17 09:45:55 10° 61° (ENE) 09:46:46 437.405
Oscar 11 01 Aug 09:49:25 09:53:08 27° 94° (E) 09:56:53 145.826/435.025
O/OREOS (USA 219) 01 Aug 09:50:57 09:52:28 12° 45° (NE) 09:54:10 437.305
QB50P2 01 Aug 09:51:42 09:53:31 13° 62° (ENE) 09:55:31 145.880/145.840
CANX-2 01 Aug 09:53:08 09:57:24 60° 286° (WNW) 10:01:37 2200.000
DELFI C3 01 Aug 09:54:07 09:57:06 20° 92° (E) 10:00:09 145.870
CUBEBUG 2 01 Aug 09:54:21 09:58:34 34° 96° (E) 10:02:53 437.445
RS-15 01 Aug 10:03:13 10:06:51 11° 265° (W) 10:09:13 29.354- 29.394
M-CUBED/EXP-1 PRIME 01 Aug 10:06:17 10:09:53 29° 261° (W) 10:13:42 437.505
AAUSAT CUBESAT 2 01 Aug 10:07:55 10:12:10 84° 281° (W) 10:16:21 437.432
TIGRISAT 01 Aug 10:13:11 10:17:22 49° 72° (ENE) 10:21:41 435.000
AIST 2 01 Aug 10:14:12 10:18:13 45° 241° (WSW) 10:22:09 435.215
DUCHIFAT 1 01 Aug 10:14:45 10:17:48 20° 66° (ENE) 10:20:56 145.980
ANTELSAT 01 Aug 10:14:58 10:19:12 53° 72° (ENE) 10:23:35 437.575/2403.000
QB50P1 01 Aug 10:17:52 10:21:08 23° 67° (ENE) 10:24:29 145.935-145.965
NANOSAT C BR1 01 Aug 10:19:01 10:22:17 23° 67° (ENE) 10:25:39 145.865
HO-68 01 Aug 10:24:28 10:31:31 59° 292° (WNW) 10:38:31 435.675
AUBIESAT-1 01 Aug 10:36:39 10:39:28 17° 266° (W) 10:42:16 437.475
YUBILEINY 01 Aug 10:41:16 10:49:06 35° 67° (ENE) 10:57:04 435.215
ZACube-1 01 Aug 10:50:36 10:55:09 79° 102° (ESE) 10:59:45 437.345
Cosmos 2499 01 Aug 10:51:29 10:54:16 12° 311° (NW) 10:56:34 435.465 / 435.565
DOVE 4 01 Aug 10:53:41 10:56:39 17° 295° (WNW) 10:59:34 437.250
POLYITAN 1 01 Aug 11:00:02 11:04:11 64° 74° (ENE) 11:08:22 437.675
CINEMA 3 01 Aug 11:01:17 11:05:15 28° 292° (WNW) 11:09:16 145.822/145.860
COMPASS 1 01 Aug 11:02:57 11:06:07 20° 294° (WNW) 11:09:09 437.405
UNISAT 6 01 Aug 11:06:36 11:10:46 44° 262° (W) 11:15:03 437.425
AIST 1 01 Aug 11:08:22 11:10:05 12° 85° (E) 11:12:01
FUNcube-1 01 Aug 11:12:17 11:16:47 65° 286° (WNW) 11:21:19 145.935
UWE-3 01 Aug 11:14:57 11:19:22 47° 288° (WNW) 11:23:49 435.000/436.395/437.385
POPSAT HIP 1 01 Aug 11:17:00 11:21:11 85° 256° (WSW) 11:25:26 437.405
Cosmos 2491 01 Aug 11:18:34 11:25:13 26° 82° (E) 11:32:10 435.465 / 435.565
SEEDS 01 Aug 11:19:28 11:21:13 12° 298° (WNW) 11:22:46 437.485
BUGSAT 1 01 Aug 11:20:23 11:24:23 65° 75° (ENE) 11:28:24 437.445
50 SAT 01 Aug 11:20:57 11:24:31 31° 96° (E) 11:28:05 437.505
PCSat 01 Aug 11:21:14 11:25:22 21° 320° (NW) 11:29:25 145.827
SO-50 01 Aug 11:22:04 11:26:00 24° 322° (NW) 11:29:57 436.795
QB50P2 01 Aug 11:24:44 11:28:55 67° 258° (WSW) 11:33:08 145.880/145.840
Oscar 11 01 Aug 11:25:28 11:29:18 29° 291° (WNW) 11:33:03 145.826/435.025
UKube-1 01 Aug 11:26:22 11:30:32 46° 99° (E) 11:34:42 .
O/OREOS (USA 219) 01 Aug 11:28:09 11:32:46 79° 66° (ENE) 11:37:22 437.305
DELFI C3 01 Aug 11:28:34 11:32:18 35° 289° (WNW) 11:35:58 145.870
AISAT 01 Aug 11:30:56 11:34:59 35° 97° (E) 11:39:04 437.250
CUBEBUG 2 01 Aug 11:31:13 11:35:09 28° 292° (WNW) 11:39:05 437.445
HUMSAT D 01 Aug 11:36:11 11:40:32 81° 284° (WNW) 11:44:52 437.325/437.525
CUBEBUG 1 01 Aug 11:44:45 11:48:28 28° 95° (E) 11:52:13 437.445
DUCHIFAT 1 01 Aug 11:49:27 11:53:22 38° 263° (W) 11:57:18 145.980
TIGRISAT 01 Aug 11:51:36 11:54:28 17° 270° (W) 11:57:15 435.000
QB50P1 01 Aug 11:53:00 11:56:50 34° 263° (W) 12:00:40 145.935-145.965
ANTELSAT 01 Aug 11:53:42 11:56:25 15° 271° (W) 11:58:59 437.575/2403.000
NANOSAT C BR1 01 Aug 11:54:09 11:57:59 33° 264° (W) 12:01:48 145.865
DX 1 01 Aug 11:54:39 11:59:01 80° 285° (WNW) 12:03:21 434.975-435.025
VELOX 1 01 Aug 12:09:41 12:14:08 87° 105° (ESE) 12:18:32 145.980
HO-68 01 Aug 12:14:40 12:17:57 13° 312° (NW) 12:20:53 435.675
SPROUT 01 Aug 12:20:15 12:23:28 21° 92° (E) 12:26:49 437.525
ESTCUBE 1 01 Aug 12:22:08 12:26:39 84° 102° (ESE) 12:31:08 437.505/2401.250
Cosmos 2504 01 Aug 12:22:18 12:27:57 20° 59° (ENE) 12:34:04 435.465 / 435.565
ZACube-1 01 Aug 12:28:49 12:30:57 13° 298° (WNW) 12:32:55 437.345
TISAT 1 01 Aug 12:31:35 12:34:16 17° 91° (E) 12:37:04 437.305
YUBILEINY 01 Aug 12:37:51 12:46:25 57° 269° (W) 12:54:56 435.215
POLYITAN 1 01 Aug 12:38:55 12:40:36 12° 272° (W) 12:42:03 437.675
AIST 1 01 Aug 12:42:58 12:47:17 60° 281° (WNW) 12:51:34
Oscar 19 01 Aug 12:49:10 12:53:53 40° 69° (ENE) 12:58:41 437.125/150
50 SAT 01 Aug 12:55:47 12:58:57 22° 292° (WNW) 13:02:00 437.505
BUGSAT 1 01 Aug 12:59:15 13:00:22 11° 272° (W) 13:01:15 437.445
UKube-1 01 Aug 13:03:19 13:06:22 19° 296° (WNW) 13:09:18 .
AISAT 01 Aug 13:07:49 13:11:25 24° 294° (WNW) 13:14:56 437.250
O/OREOS (USA 219) 01 Aug 13:10:08 13:11:37 11° 261° (W) 13:12:48 437.305
Cosmos 2491 01 Aug 13:12:38 13:21:24 71° 282° (WNW) 13:30:09 435.465 / 435.565
CUBEBUG 1 01 Aug 13:21:03 13:24:48 28° 292° (WNW) 13:28:28 437.445
JAS-2 01 Aug 13:30:38 13:34:28 17° 53° (NE) 13:38:47 435.910
SWISSCUBE 01 Aug 13:35:14 13:38:05 16° 89° (E) 13:41:07 437.505
VELOX 1 01 Aug 13:48:44 13:50:04 11° 300° (WNW) 13:51:11 145.980
Gurwin Techsat 1B 01 Aug 13:50:11 13:55:12 45° 70° (ENE) 14:00:17 435.225
ITUPSAT 1 01 Aug 13:55:42 13:59:27 23° 92° (E) 14:03:16 437.325
SPROUT 01 Aug 13:55:43 13:59:42 37° 290° (WNW) 14:03:39 437.525
ESTCUBE 1 01 Aug 14:01:13 14:02:55 12° 300° (WNW) 14:04:24 437.505/2401.250
TISAT 1 01 Aug 14:06:16 14:10:18 45° 288° (WNW) 14:14:19 437.305
ITAMSAT 1 01 Aug 14:10:23 14:15:30 61° 72° (ENE) 14:20:40 435.822/435.867
Cosmos 2504 01 Aug 14:13:06 14:21:33 85° 82° (E) 14:30:14 435.465 / 435.565
AO-7 01 Aug 14:13:09 14:19:45 28° 54° (NE) 14:26:33 29.400- 29.500
Oscar 19 01 Aug 14:29:02 14:33:23 27° 266° (W) 14:37:40 437.125/150
DANDE 01 Aug 14:31:43 14:33:50 15° 72° (ENE) 14:36:25 436.750
CUSAT 1 01 Aug 14:48:09 14:51:57 38° 77° (ENE) 14:56:56 437.405
BEESAT 01 Aug 14:50:58 14:55:47 81° 104° (ESE) 15:00:33 436.000
STARS 01 Aug 15:10:58 15:13:11 14° 89° (E) 15:15:36 437.465
SWISSCUBE 01 Aug 15:11:41 15:16:25 59° 288° (WNW) 15:21:05 437.505
JAS-2 01 Aug 15:12:16 15:18:24 82° 74° (ENE) 15:25:26 435.910
Cosmos 2491 01 Aug 15:15:04 15:20:17 16° 306° (NW) 15:25:02 435.465 / 435.565
GONETS M04 01 Aug 15:24:04 15:28:44 16° 54° (NE) 15:33:54
Gurwin Techsat 1B 01 Aug 15:31:02 15:35:25 25° 267° (W) 15:39:44 435.225
ITUPSAT 1 01 Aug 15:33:01 15:37:32 41° 290° (WNW) 15:41:59 437.325
KKS-1 01 Aug 15:37:14 15:41:29 42° 98° (E) 15:45:45 437.445
HORYU 2 01 Aug 15:42:56 15:47:21 67° 73° (ENE) 15:51:49 437.375
ITAMSAT 1 01 Aug 15:51:53 15:55:30 18° 270° (W) 15:58:55 435.822/435.867
AO-7 01 Aug 16:03:27 16:11:51 79° 254° (WSW) 16:20:16 29.400- 29.500
Cosmos 2504 01 Aug 16:06:49 16:12:55 22° 280° (W) 16:18:46 435.465 / 435.565
DANDE 01 Aug 16:13:22 16:16:55 43° 262° (W) 16:21:35 436.750
Cubesat XI-IV 01 Aug 16:29:10 16:30:09 11° 55° (NE) 16:31:26 437.490
BEESAT 01 Aug 16:30:37 16:33:02 14° 300° (WNW) 16:35:14 436.000
SO-50 01 Aug 16:30:44 16:34:08 18° 34° (NNE) 16:37:35 436.795
CUSAT 1 01 Aug 16:31:07 16:34:27 21° 264° (W) 16:38:22 437.405
MOZHAYETS 4 01 Aug 16:31:12 16:34:42 21° 91° (E) 16:38:17
PCSat 01 Aug 16:39:52 16:43:30 18° 37° (NE) 16:47:15 145.827
STARS 01 Aug 16:45:43 16:50:05 60° 287° (WNW) 16:54:27 437.465
Cosmos 2499 01 Aug 16:48:55 16:52:38 14° 52° (NE) 16:56:57 435.465 / 435.565
JAS-2 01 Aug 17:00:29 17:04:38 17° 277° (W) 17:08:46 435.910
KKS-1 01 Aug 17:14:29 17:17:52 21° 295° (WNW) 17:21:09 437.445
GONETS M04 01 Aug 17:18:54 17:27:37 71° 78° (ENE) 17:36:22
CUTE-I 01 Aug 17:20:52 17:25:22 29° 65° (ENE) 17:29:58 437.470
HORYU 2 01 Aug 17:22:27 17:24:32 13° 272° (W) 17:26:24 437.375
VERMONT LUNAR 01 Aug 17:50:31 17:51:54 12° 153° (SSE) 17:53:20 437.305
AO-7 01 Aug 18:01:07 18:06:10 16° 275° (W) 18:10:42 29.400- 29.500
Cubesat XI-IV 01 Aug 18:04:03 18:09:22 67° 73° (ENE) 18:14:44 437.490
MOZHAYETS 4 01 Aug 18:07:45 18:12:08 42° 289° (WNW) 18:16:27
SO-50 01 Aug 18:10:28 18:15:28 85° 55° (NE) 18:20:20 436.795
PCSat 01 Aug 18:22:19 18:27:48 85° 58° (ENE) 18:33:14 145.827
CUBESAT XI-V 01 Aug 18:26:12 18:30:11 29° 94° (E) 18:34:11 437.345
Cosmos 2499 01 Aug 18:39:28 18:48:04 60° 76° (ENE) 18:56:51 435.465 / 435.565
BRITE-PL 01 Aug 18:51:41 18:54:57 22° 68° (ENE) 18:58:13 437.365/2234.400
CUTE-I 01 Aug 19:00:15 19:05:18 41° 262° (W) 19:10:22 437.470
GOMX 1 01 Aug 19:00:41 19:03:09 16° 65° (ENE) 19:05:45 467.674
STRAND 1 01 Aug 19:08:10 19:12:13 24° 93° (E) 19:16:22 437.568
HO-68 01 Aug 19:08:13 19:13:52 27° 58° (ENE) 19:19:42 435.675
CANX-2 01 Aug 19:14:10 19:15:58 13° 62° (ENE) 19:17:57 2200.000
GONETS M04 01 Aug 19:16:52 19:23:47 26° 278° (W) 19:30:26
PRISM 01 Aug 19:18:52 19:22:00 21° 93° (E) 19:25:12 437.425
VERMONT LUNAR 01 Aug 19:25:11 19:28:05 33° 168° (SSE) 19:31:01 437.305
Cubesat XI-IV 01 Aug 19:46:29 19:50:03 17° 271° (W) 19:53:24 437.490
PHONESAT 2.4 01 Aug 19:48:58 19:51:05 15° 153° (SSE) 19:53:16 2401.200-2431.200
SO-50 01 Aug 19:52:58 19:55:23 13° 251° (WSW) 19:57:32 436.795
RS-15 01 Aug 20:02:15 20:09:27 22° 101° (ESE) 20:17:24 29.354- 29.394
CUBESAT XI-V 01 Aug 20:03:32 20:07:37 31° 291° (WNW) 20:11:37 437.345
PCSat 01 Aug 20:07:40 20:10:34 14° 255° (WSW) 20:13:12 145.827
COMPASS 1 01 Aug 20:19:15 20:23:02 33° 70° (ENE) 20:26:52 437.405
DOVE 4 01 Aug 20:22:18 20:26:25 69° 75° (ENE) 20:30:35 437.250
CINEMA 3 01 Aug 20:27:38 20:31:23 34° 70° (ENE) 20:35:15 145.822/145.860
BRITE-PL 01 Aug 20:29:21 20:33:23 34° 263° (W) 20:37:14 437.365/2234.400
Cosmos 2499 01 Aug 20:33:15 20:40:53 34° 275° (W) 20:48:25 435.465 / 435.565
SEEDS 01 Aug 20:34:49 20:39:00 62° 74° (ENE) 20:43:15 437.485
FUNcube-1 01 Aug 20:35:55 20:37:46 13° 62° (ENE) 20:39:49 145.935
GOMX 1 01 Aug 20:36:54 20:41:01 48° 261° (W) 20:45:03 467.674
CUTE 1.7 + AOD 2 01 Aug 20:38:36 20:42:52 84° 77° (ENE) 20:47:12 437.475
UWE-3 01 Aug 20:38:39 20:41:27 18° 65° (ENE) 20:44:26 435.000/436.395/437.385
DELFI C3 01 Aug 20:43:17 20:45:47 16° 65° (ENE) 20:48:25 145.870
Oscar 11 01 Aug 20:45:46 20:49:22 26° 68° (ENE) 20:53:02 145.826/435.025
STRAND 1 01 Aug 20:46:48 20:51:40 44° 290° (WNW) 20:56:28 437.568
CANX-2 01 Aug 20:47:06 20:51:22 71° 258° (WSW) 20:55:41 2200.000
PRISM 01 Aug 20:53:48 20:57:33 33° 291° (WNW) 21:01:13 437.425
HO-68 01 Aug 20:54:00 21:01:06 68° 257° (WSW) 21:08:16 435.675
CUBEBUG 2 01 Aug 20:54:27 20:58:09 31° 69° (ENE) 21:02:00 437.445
AAUSAT CUBESAT 2 01 Aug 20:59:40 21:03:52 78° 76° (ENE) 21:08:06 437.432
VERMONT LUNAR 01 Aug 21:01:30 21:04:32 41° 185° (S) 21:07:33 437.305
ISS 01 Aug 21:08:11 21:11:15 40° 142° (SE) 21:14:21 145.825
DX 1 01 Aug 21:18:26 21:20:06 12° 61° (ENE) 21:21:58 434.975-435.025
PHONESAT 2.4 01 Aug 21:25:16 21:28:33 38° 169° (S) 21:31:51 2401.200-2431.200
Cosmos 2491 01 Aug 21:26:40 21:30:34 14° 51° (NE) 21:35:01 435.465 / 435.565
VELOX 1 01 Aug 21:35:50 21:36:58 11° 60° (ENE) 21:38:19 145.980
M-CUBED/EXP-1 PRIME 01 Aug 21:45:40 21:49:10 20° 96° (E) 21:52:43 437.505
ZACube-1 01 Aug 21:47:58 21:52:09 72° 74° (ENE) 21:56:27 437.345
ESTCUBE 1 01 Aug 21:49:55 21:51:14 11° 60° (ENE) 21:52:48 437.505/2401.250
COMPASS 1 01 Aug 21:55:22 21:58:47 23° 268° (W) 22:02:07 437.405
DOVE 4 01 Aug 22:04:12 22:04:49 10° 274° (W) 22:05:11 437.250
CINEMA 3 01 Aug 22:05:31 22:08:44 21° 268° (W) 22:11:56 145.822/145.860
50 SAT 01 Aug 22:06:31 22:09:31 22° 68° (ENE) 22:12:38 437.505
ANTELSAT 01 Aug 22:07:44 22:08:50 11° 86° (E) 22:10:14 437.575/2403.000
RS-15 01 Aug 22:09:22 22:20:18 85° 122° (ESE) 22:31:42 29.354- 29.394
FUNcube-1 01 Aug 22:09:23 22:13:34 68° 259° (W) 22:17:52 145.935
SEEDS 01 Aug 22:13:18 22:15:17 13° 272° (W) 22:17:04 437.485
UWE-3 01 Aug 22:13:38 22:17:40 45° 262° (W) 22:21:49 435.000/436.395/437.385
AUBIESAT-1 01 Aug 22:13:53 22:18:08 32° 100° (E) 22:22:19 437.475
DELFI C3 01 Aug 22:16:35 22:20:31 47° 261° (W) 22:24:29 145.870
Oscar 11 01 Aug 22:21:35 22:25:27 31° 265° (W) 22:29:19 145.826/435.025
UKube-1 01 Aug 22:22:27 22:26:35 48° 72° (ENE) 22:30:46 .
HUMSAT D 01 Aug 22:29:05 22:33:14 85° 77° (ENE) 22:37:28 437.325/437.525
AISAT 01 Aug 22:30:04 22:34:09 38° 70° (ENE) 22:38:15 437.250
CUBEBUG 2 01 Aug 22:31:29 22:34:55 24° 267° (W) 22:38:22 437.445
VERMONT LUNAR 01 Aug 22:38:23 22:40:52 21° 201° (SSW) 22:43:20 437.305
BEESAT 2 01 Aug 22:38:24 22:39:20 11° 110° (ESE) 22:40:30 435.950
CUBEBUG 1 01 Aug 22:42:22 22:46:07 29° 68° (ENE) 22:49:54 437.445
ISS 01 Aug 22:44:41 22:47:44 36° 339° (NNW) 22:50:48 145.825
HO-68 01 Aug 22:48:01 22:50:23 11° 278° (W) 22:52:11 435.675
AIST 1 01 Aug 22:48:38 22:52:35 36° 75° (ENE) 22:56:31
DX 1 01 Aug 22:51:28 22:55:48 76° 256° (WSW) 23:00:11 434.975-435.025
UNISAT 6 01 Aug 22:56:41 23:00:58 35° 96° (E) 23:05:18 437.425
POPSAT HIP 1 01 Aug 23:02:00 23:04:13 14° 89° (E) 23:06:37 437.405
PHONESAT 2.4 01 Aug 23:02:52 23:06:14 43° 186° (S) 23:09:35 2401.200-2431.200
VELOX 1 01 Aug 23:08:29 23:12:54 87° 256° (WSW) 23:17:20 145.980
QB50P2 01 Aug 23:09:21 23:12:13 18° 91° (E) 23:15:12 145.880/145.840
BEESAT 3 01 Aug 23:14:12 23:17:51 33° 117° (ESE) 23:21:35 437.485
SPROUT 01 Aug 23:16:10 23:19:18 21° 66° (ENE) 23:22:31 437.525
M-CUBED/EXP-1 PRIME 01 Aug 23:19:32 23:24:14 51° 293° (WNW) 23:28:47 437.505
Cosmos 2491 01 Aug 23:21:05 23:29:45 64° 77° (ENE) 23:38:23 435.465 / 435.565
ESTCUBE 1 01 Aug 23:22:56 23:27:29 89° 266° (W) 23:32:03 437.505/2401.250
TISAT 1 01 Aug 23:25:38 23:28:11 16° 64° (ENE) 23:30:52 437.305
ZACube-1 01 Aug 23:28:11 23:29:09 10° 274° (W) 23:29:52 437.345
DUCHIFAT 1 01 Aug 23:32:27 23:36:08 29° 95° (E) 23:39:52 145.980
QB50P1 01 Aug 23:36:12 23:40:03 33° 96° (E) 23:43:55 145.935-145.965
NANOSAT C BR1 01 Aug 23:37:07 23:40:58 33° 96° (E) 23:44:50 145.865
TIGRISAT 01 Aug 23:39:27 23:44:11 89° 117° (ESE) 23:48:54 435.000
50 SAT 01 Aug 23:40:29 23:43:57 30° 264° (W) 23:47:26 437.505
ANTELSAT 01 Aug 23:41:35 23:46:19 84° 284° (WNW) 23:51:03 437.575/2403.000
YUBILEINY 01 Aug 23:44:36 23:52:13 37° 86° (E) 00:00:03 435.215
AUBIESAT-1 01 Aug 23:48:31 23:52:46 32° 297° (WNW) 23:56:52 437.475
UKube-1 02 Aug 00:00:10 00:03:02 17° 269° (W) 00:05:45 .
AISAT 02 Aug 00:07:28 00:10:52 21° 267° (W) 00:14:12 437.250
BEESAT 2 02 Aug 00:12:44 00:16:50 79° 303° (WNW) 00:21:00 435.950
AIST 2 02 Aug 00:13:36 00:17:05 26° 115° (ESE) 00:20:40 435.215
CUBEBUG 1 02 Aug 00:18:41 00:22:28 28° 265° (W) 00:26:10 437.445
POLYITAN 1 02 Aug 00:19:27 00:23:45 82° 285° (WNW) 00:28:03 437.675
ISS 02 Aug 00:22:12 00:24:47 21° 359° (N) 00:27:22 145.825
BEESAT 02 Aug 00:23:47 00:26:16 15° 61° (ENE) 00:28:57 436.000
RS-15 02 Aug 00:24:04 00:34:12 38° 330° (NNW) 00:44:38 29.354- 29.394
AIST 1 02 Aug 00:26:53 00:30:00 19° 272° (W) 00:33:00
UNISAT 6 02 Aug 00:33:38 00:37:38 28° 293° (WNW) 00:41:35 437.425
BUGSAT 1 02 Aug 00:36:08 00:40:13 87° 284° (WNW) 00:44:20 437.445
POPSAT HIP 1 02 Aug 00:36:18 00:40:29 55° 287° (WNW) 00:44:40 437.405
PHONESAT 2.4 02 Aug 00:41:01 00:43:47 22° 202° (SSW) 00:46:32 2401.200-2431.200
SWISSCUBE 02 Aug 00:43:03 00:46:46 23° 65° (ENE) 00:50:35 437.505
QB50P2 02 Aug 00:44:17 00:48:21 44° 288° (WNW) 00:52:24 145.880/145.840
SPROUT 02 Aug 00:51:08 00:55:09 39° 263° (W) 00:59:10 437.525
BEESAT 3 02 Aug 00:52:14 00:55:50 28° 315° (NW) 00:59:24 437.485
TISAT 1 02 Aug 00:59:33 01:03:36 49° 260° (W) 01:07:41 437.305
Oscar 19 02 Aug 01:01:04 01:02:53 12° 86° (E) 01:05:01 437.125/150
ITUPSAT 1 02 Aug 01:03:49 01:08:03 32° 68° (ENE) 01:12:22 437.325
DUCHIFAT 1 02 Aug 01:08:16 01:11:53 27° 292° (WNW) 01:15:26 145.980
QB50P1 02 Aug 01:12:19 01:15:46 24° 293° (WNW) 01:19:10 145.935-145.965
NANOSAT C BR1 02 Aug 01:13:12 01:16:39 24° 293° (WNW) 01:20:02 145.865
TIGRISAT 02 Aug 01:18:24 01:20:17 12° 300° (WNW) 01:21:57 435.000
Cosmos 2491 02 Aug 01:18:50 01:26:05 29° 277° (W) 01:33:04 435.465 / 435.565
ANTELSAT 02 Aug 01:20:56 01:22:25 11° 300° (WNW) 01:23:40 437.575/2403.000
YUBILEINY 02 Aug 01:40:22 01:48:49 52° 286° (WNW) 01:57:20 435.215
O/OREOS (USA 219) 02 Aug 01:41:46 01:46:13 69° 111° (ESE) 01:50:44 437.305
AIST 2 02 Aug 01:51:32 01:55:31 37° 312° (NW) 01:59:31 435.215
BEESAT 2 02 Aug 01:53:27 01:55:36 13° 326° (NW) 01:57:40 435.950
BEESAT 02 Aug 01:58:46 02:03:34 76° 256° (WSW) 02:08:24 436.000
ISS 02 Aug 01:58:50 02:01:51 34° 19° (NNE) 02:04:53 145.825
Gurwin Techsat 1B 02 Aug 02:06:02 02:09:03 16° 88° (E) 02:12:18 435.225
STARS 02 Aug 02:09:31 02:12:08 16° 63° (ENE) 02:14:53 437.465
SWISSCUBE 02 Aug 02:19:48 02:24:23 43° 262° (W) 02:28:58 437.505
JAS-2 02 Aug 02:21:55 02:25:28 14° 81° (E) 02:29:31 435.910
ITAMSAT 1 02 Aug 02:22:40 02:26:12 19° 90° (E) 02:29:55 435.822/435.867
KKS-1 02 Aug 02:36:45 02:40:58 47° 71° (ENE) 02:45:15 437.445
Oscar 19 02 Aug 02:37:50 02:43:03 87° 286° (WNW) 02:48:15 437.125/150
ITUPSAT 1 02 Aug 02:41:41 02:45:57 30° 265° (W) 02:50:10 437.325
RS-15 02 Aug 02:41:48 02:50:55 27° 4° (N) 03:00:26 29.354- 29.394
Cosmos 2504 02 Aug 02:45:23 02:52:22 61° 92° (E) 02:59:56 435.465 / 435.565
O/OREOS (USA 219) 02 Aug 03:23:25 03:26:13 16° 311° (NW) 03:28:53 437.305
MOZHAYETS 4 02 Aug 03:34:36 03:38:20 25° 67° (ENE) 03:42:09
HORYU 2 02 Aug 03:34:51 03:36:17 12° 87° (E) 03:37:58 437.375
ISS 02 Aug 03:35:13 03:38:22 46° 218° (SW) 03:41:30 145.825
STARS 02 Aug 03:43:53 03:48:10 56° 260° (W) 03:52:29 437.465
Gurwin Techsat 1B 02 Aug 03:44:21 03:49:40 72° 287° (WNW) 03:54:58 435.225
YUBILEINY 02 Aug 03:46:08 03:48:28 11° 313° (NW) 03:50:11 435.215
CUSAT 1 02 Aug 03:59:27 04:01:44 23° 96° (E) 04:03:55 437.405
ITAMSAT 1 02 Aug 04:01:04 04:06:09 57° 289° (WNW) 04:11:12 435.822/435.867
AO-7 02 Aug 04:03:51 04:11:04 33° 94° (E) 04:18:24 29.400- 29.500
JAS-2 02 Aug 04:04:09 04:12:00 70° 101° (E) 04:19:44 435.910
KKS-1 02 Aug 04:14:50 04:17:54 18° 269° (W) 04:20:50 437.445
Oscar 19 02 Aug 04:19:14 04:21:43 13° 302° (WNW) 04:23:58 437.125/150
GONETS M04 02 Aug 04:30:13 04:34:28 15° 76° (ENE) 04:39:14
Cosmos 2504 02 Aug 04:39:09 04:45:16 27° 295° (WNW) 04:51:34 435.465 / 435.565
RS-15 02 Aug 04:56:20 05:07:18 45° 36° (NE) 05:18:48 29.354- 29.394
HORYU 2 02 Aug 05:09:00 05:13:32 75° 286° (WNW) 05:18:01 437.375
MOZHAYETS 4 02 Aug 05:11:05 05:15:24 37° 264° (W) 05:19:43
Gurwin Techsat 1B 02 Aug 05:27:09 05:28:49 11° 304° (NW) 05:30:12 435.225
DANDE 02 Aug 05:29:00 05:31:33 23° 285° (WNW) 05:33:47 436.750
CUBESAT XI-V 02 Aug 05:30:55 05:35:07 34° 69° (ENE) 05:39:20 437.345
JAS-2 02 Aug 05:49:55 05:56:28 30° 299° (WNW) 06:02:51 435.910
AO-7 02 Aug 05:56:11 06:04:23 61° 295° (WNW) 06:12:28 29.400- 29.500
PRISM 02 Aug 06:10:28 06:13:35 21° 66° (ENE) 06:16:46 437.425
